Time,TemperatureF,DewpointF,PressureIn,WindDirection,WindDirectionDegrees,WindSpeedMPH,WindSpeedGustMPH,Humidity,HourlyPrecipIn,Conditions,Clouds,dailyrainin,SoftwareType,DateUTC
2017-02-24 00:00:00,36.1,14.1,29.52,West,280,2.0,3.0,40,0.00,,---,0.00,VWS V15.00,2017-02-24 07:00:00,
2017-02-24 00:01:00,36.1,14.1,29.51,West,280,2.0,2.0,40,0.00,,---,0.00,VWS V15.00,2017-02-24 07:01:00,
2017-02-24 00:02:00,36.1,14.1,29.51,West,280,2.0,2.0,40,0.00,,---,0.00,VWS V15.00,2017-02-24 07:02:00,
2017-02-24 00:03:00,35.7,14.3,29.51,West,280,3.0,6.0,41,0.00,,---,0.00,VWS V15.00,2017-02-24 07:03:00,
2017-02-24 00:04:00,35.8,14.4,29.51,West,280,1.0,2.0,41,0.00,,---,0.00,VWS V15.00,2017-02-24 07:04:00,
2017-02-24 00:05:00,35.7,14.3,29.51,West,280,3.0,3.0,41,0.00,,---,0.00,VWS V15.00,2017-02-24 07:05:00,
2017-02-24 00:06:00,35.7,14.3,29.51,West,280,4.0,6.0,41,0.00,,---,0.00,VWS V15.00,2017-02-24 07:06:00,
2017-02-24 00:07:00,35.6,14.2,29.51,West,280,3.0,5.0,41,0.00,,---,0.00,VWS V15.00,2017-02-24 07:07:00,
2017-02-24 00:08:00,35.4,14.1,29.52,West,280,1.0,3.0,41,0.00,,---,0.00,VWS V15.00,2017-02-24 07:08:00,
2017-02-24 00:09:00,35.5,14.1,29.51,West,280,2.0,3.0,41,0.00,,---,0.00,VWS V15.00,2017-02-24 07:09:00,
2017-02-24 00:10:00,35.4,14.1,29.51,West,280,3.0,3.0,41,0.00,,---,0.00,VWS V15.00,2017-02-24 07:10:00,
2017-02-24 00:11:00,35.4,14.1,29.52,West,280,1.0,3.0,41,0.00,,---,0.00,VWS V15.00,2017-02-24 07:11:00,
2017-02-24 00:12:00,35.3,14.0,29.52,West,280,3.0,3.0,41,0.00,,---,0.00,VWS V15.00,2017-02-24 07:12:00,
2017-02-24 00:13:00,35.0,14.2,29.53,West,280,3.0,4.0,42,0.00,,---,0.00,VWS V15.00,2017-02-24 07:13:00,
2017-02-24 00:14:00,35.2,13.9,29.53,West,280,3.0,5.0,41,0.00,,---,0.00,VWS V15.00,2017-02-24 07:14:00,
2017-02-24 00:15:00,35.1,14.3,29.53,West,280,2.0,3.0,42,0.00,,---,0.00,VWS V15.00,2017-02-24 07:15:00,
2017-02-24 00:16:00,35.0,14.2,29.53,West,280,1.0,4.0,42,0.00,,---,0.00,VWS V15.00,2017-02-24 07:16:00,
2017-02-24 00:17:00,35.0,14.2,29.53,West,280,2.0,3.0,42,0.00,,---,0.00,VWS V15.00,2017-02-24 07:17:00,
2017-02-24 00:18:00,34.7,14.0,29.53,West,280,2.0,3.0,42,0.00,,---,0.00,VWS V15.00,2017-02-24 07:18:00,
2017-02-24 00:19:00,34.8,14.1,29.53,West,280,1.0,4.0,42,0.00,,---,0.00,VWS V15.00,2017-02-24 07:19:00,
2017-02-24 00:20:00,34.7,14.0,29.53,West,280,3.0,5.0,42,0.00,,---,0.00,VWS V15.00,2017-02-24 07:20:00,
2017-02-24 00:21:00,34.7,14.0,29.53,West,280,2.0,3.0,42,0.00,,---,0.00,VWS V15.00,2017-02-24 07:21:00,
2017-02-24 00:22:00,34.6,13.9,29.53,West,280,4.0,4.0,42,0.00,,---,0.00,VWS V15.00,2017-02-24 07:22:00,
2017-02-24 00:23:00,34.4,13.7,29.53,West,280,1.0,5.0,42,0.00,,---,0.00,VWS V15.00,2017-02-24 07:23:00,
2017-02-24 00:24:00,34.4,13.7,29.53,West,280,4.0,6.0,42,0.00,,---,0.00,VWS V15.00,2017-02-24 07:24:00,
2017-02-24 00:25:00,34.4,13.7,29.53,West,280,3.0,5.0,42,0.00,,---,0.00,VWS V15.00,2017-02-24 07:25:00,
2017-02-24 00:26:00,34.4,13.7,29.53,West,280,2.0,5.0,42,0.00,,---,0.00,VWS V15.00,2017-02-24 07:26:00,
2017-02-24 00:27:00,34.4,13.7,29.53,West,280,5.0,5.0,42,0.00,,---,0.00,VWS V15.00,2017-02-24 07:27:00,
2017-02-24 00:28:00,34.4,14.2,29.53,West,280,4.0,7.0,43,0.00,,---,0.00,VWS V15.00,2017-02-24 07:28:00,
2017-02-24 00:29:00,34.4,14.2,29.53,West,280,2.0,5.0,43,0.00,,---,0.00,VWS V15.00,2017-02-24 07:29:00,
2017-02-24 00:30:00,34.4,14.2,29.53,West,280,5.0,5.0,43,0.00,,---,0.00,VWS V15.00,2017-02-24 07:30:00,
2017-02-24 00:31:00,34.4,14.2,29.53,West,280,4.0,7.0,43,0.00,,---,0.00,VWS V15.00,2017-02-24 07:31:00,
2017-02-24 00:32:00,34.5,14.3,29.53,West,280,4.0,5.0,43,0.00,,---,0.00,VWS V15.00,2017-02-24 07:32:00,
2017-02-24 00:33:00,34.6,13.9,29.54,West,280,3.0,6.0,42,0.00,,---,0.00,VWS V15.00,2017-02-24 07:33:00,
2017-02-24 00:34:00,34.6,14.4,29.53,West,280,4.0,6.0,43,0.00,,---,0.00,VWS V15.00,2017-02-24 07:34:00,
2017-02-24 00:35:00,34.6,14.4,29.54,West,280,6.0,6.0,43,0.00,,---,0.00,VWS V15.00,2017-02-24 07:35:00,
2017-02-24 00:36:00,34.6,13.9,29.54,West,280,3.0,6.0,42,0.00,,---,0.00,VWS V15.00,2017-02-24 07:36:00,
2017-02-24 00:37:00,34.6,13.9,29.54,West,280,5.0,7.0,42,0.00,,---,0.00,VWS V15.00,2017-02-24 07:37:00,
2017-02-24 00:38:00,34.8,12.9,29.54,NW,317,7.0,12.0,40,0.00,,---,0.00,VWS V15.00,2017-02-24 07:38:00,
2017-02-24 00:39:00,34.7,13.4,29.54,West,280,6.0,6.0,41,0.00,,---,0.00,VWS V15.00,2017-02-24 07:39:00,
2017-02-24 00:40:00,34.7,13.4,29.54,WNW,286,3.0,10.0,41,0.00,,---,0.00,VWS V15.00,2017-02-24 07:40:00,
2017-02-24 00:41:00,34.8,12.9,29.54,NW,315,6.0,12.0,40,0.00,,---,0.00,VWS V15.00,2017-02-24 07:41:00,
2017-02-24 00:42:00,34.9,12.5,29.54,WNW,300,10.0,10.0,39,0.00,,---,0.00,VWS V15.00,2017-02-24 07:42:00,
2017-02-24 00:43:00,35.1,12.1,29.54,WNW,299,3.0,6.0,38,0.00,,---,0.00,VWS V15.00,2017-02-24 07:43:00,
2017-02-24 00:44:00,35.0,12.6,29.54,WNW,300,6.0,9.0,39,0.00,,---,0.00,VWS V15.00,2017-02-24 07:44:00,
2017-02-24 00:45:00,35.1,12.1,29.54,WNW,300,3.0,7.0,38,0.00,,---,0.00,VWS V15.00,2017-02-24 07:45:00,
2017-02-24 00:46:00,35.1,12.1,29.54,WNW,300,3.0,6.0,38,0.00,,---,0.00,VWS V15.00,2017-02-24 07:46:00,
2017-02-24 00:47:00,35.1,12.1,29.54,WNW,300,4.0,9.0,38,0.00,,---,0.00,VWS V15.00,2017-02-24 07:47:00,
2017-02-24 00:48:00,35.1,11.5,29.54,WNW,301,4.0,6.0,37,0.00,,---,0.00,VWS V15.00,2017-02-24 07:48:00,
2017-02-24 00:49:00,35.2,11.6,29.54,WNW,300,7.0,8.0,37,0.00,,---,0.00,VWS V15.00,2017-02-24 07:49:00,
2017-02-24 00:50:00,35.2,11.6,29.54,WNW,300,3.0,9.0,37,0.00,,---,0.00,VWS V15.00,2017-02-24 07:50:00,
2017-02-24 00:51:00,35.1,11.5,29.54,WNW,301,4.0,6.0,37,0.00,,---,0.00,VWS V15.00,2017-02-24 07:51:00,
2017-02-24 00:52:00,35.1,11.5,29.54,WNW,301,7.0,7.0,37,0.00,,---,0.00,VWS V15.00,2017-02-24 07:52:00,
2017-02-24 00:53:00,35.0,10.8,29.55,WNW,300,4.0,6.0,36,0.00,,---,0.00,VWS V15.00,2017-02-24 07:53:00,
2017-02-24 00:54:00,35.0,10.8,29.55,WNW,300,7.0,7.0,36,0.00,,---,0.00,VWS V15.00,2017-02-24 07:54:00,
2017-02-24 00:55:00,35.0,10.8,29.54,WNW,300,2.0,8.0,36,0.00,,---,0.00,VWS V15.00,2017-02-24 07:55:00,
2017-02-24 00:56:00,35.0,10.8,29.55,WNW,300,4.0,6.0,36,0.00,,---,0.00,VWS V15.00,2017-02-24 07:56:00,
2017-02-24 00:57:00,35.0,10.8,29.54,WNW,300,3.0,4.0,36,0.00,,---,0.00,VWS V15.00,2017-02-24 07:57:00,
2017-02-24 00:58:00,34.7,10.5,29.53,WNW,300,1.0,3.0,36,0.00,,---,0.00,VWS V15.00,2017-02-24 07:58:00,
2017-02-24 00:59:00,34.8,10.6,29.54,WNW,300,4.0,5.0,36,0.00,,---,0.00,VWS V15.00,2017-02-24 07:59:00,
2017-02-24 01:00:00,34.8,10.6,29.55,WNW,300,1.0,4.0,36,0.00,,---,0.00,VWS V15.00,2017-02-24 08:00:00,
2017-02-24 01:01:00,34.7,10.5,29.53,WNW,300,1.0,3.0,36,0.00,,---,0.00,VWS V15.00,2017-02-24 08:01:00,
2017-02-24 01:02:00,34.7,10.5,29.53,WNW,300,1.0,3.0,36,0.00,,---,0.00,VWS V15.00,2017-02-24 08:02:00,
2017-02-24 01:03:00,34.4,10.2,29.55,WNW,301,8.0,9.0,36,0.00,,---,0.00,VWS V15.00,2017-02-24 08:03:00,
2017-02-24 01:04:00,34.4,10.8,29.53,WNW,300,4.0,5.0,37,0.00,,---,0.00,VWS V15.00,2017-02-24 08:04:00,
2017-02-24 01:05:00,34.4,10.2,29.55,WNW,300,5.0,9.0,36,0.00,,---,0.00,VWS V15.00,2017-02-24 08:05:00,
2017-02-24 01:06:00,34.4,10.2,29.55,WNW,300,9.0,10.0,36,0.00,,---,0.00,VWS V15.00,2017-02-24 08:06:00,
2017-02-24 01:07:00,34.4,10.2,29.55,WNW,301,6.0,9.0,36,0.00,,---,0.00,VWS V15.00,2017-02-24 08:07:00,
2017-02-24 01:08:00,34.4,10.2,29.54,WNW,301,1.0,1.0,36,0.00,,---,0.00,VWS V15.00,2017-02-24 08:08:00,
2017-02-24 01:09:00,34.4,10.2,29.55,WNW,300,4.0,5.0,36,0.00,,---,0.00,VWS V15.00,2017-02-24 08:09:00,
2017-02-24 01:10:00,34.4,10.2,29.55,WNW,301,4.0,5.0,36,0.00,,---,0.00,VWS V15.00,2017-02-24 08:10:00,
2017-02-24 01:11:00,34.4,10.2,29.54,WNW,301,1.0,5.0,36,0.00,,---,0.00,VWS V15.00,2017-02-24 08:11:00,
2017-02-24 01:12:00,34.4,10.2,29.54,WNW,301,4.0,6.0,36,0.00,,---,0.00,VWS V15.00,2017-02-24 08:12:00,
2017-02-24 01:13:00,34.4,10.2,29.55,WNW,300,2.0,2.0,36,0.00,,---,0.00,VWS V15.00,2017-02-24 08:13:00,
2017-02-24 01:14:00,34.4,10.2,29.55,WNW,300,6.0,6.0,36,0.00,,---,0.00,VWS V15.00,2017-02-24 08:14:00,
2017-02-24 01:15:00,34.4,10.2,29.55,WNW,300,2.0,6.0,36,0.00,,---,0.00,VWS V15.00,2017-02-24 08:15:00,
2017-02-24 01:16:00,34.4,10.2,29.54,WNW,300,1.0,3.0,36,0.00,,---,0.00,VWS V15.00,2017-02-24 08:16:00,
2017-02-24 01:17:00,34.4,10.2,29.55,WNW,300,2.0,4.0,36,0.00,,---,0.00,VWS V15.00,2017-02-24 08:17:00,
2017-02-24 01:18:00,34.4,10.2,29.55,WNW,300,2.0,2.0,36,0.00,,---,0.00,VWS V15.00,2017-02-24 08:18:00,
2017-02-24 01:19:00,34.4,10.2,29.55,WNW,300,1.0,3.0,36,0.00,,---,0.00,VWS V15.00,2017-02-24 08:19:00,
2017-02-24 01:20:00,34.4,10.2,29.55,WNW,300,3.0,5.0,36,0.00,,---,0.00,VWS V15.00,2017-02-24 08:20:00,
2017-02-24 01:21:00,34.4,10.2,29.55,WNW,300,2.0,4.0,36,0.00,,---,0.00,VWS V15.00,2017-02-24 08:21:00,
2017-02-24 01:22:00,34.4,10.8,29.55,WNW,300,0.0,3.0,37,0.00,,---,0.00,VWS V15.00,2017-02-24 08:22:00,
2017-02-24 01:23:00,34.4,10.8,29.55,WNW,300,3.0,3.0,37,0.00,,---,0.00,VWS V15.00,2017-02-24 08:23:00,
2017-02-24 01:24:00,34.4,10.8,29.55,WNW,300,2.0,4.0,37,0.00,,---,0.00,VWS V15.00,2017-02-24 08:24:00,
2017-02-24 01:25:00,34.4,10.8,29.55,WNW,300,1.0,5.0,37,0.00,,---,0.00,VWS V15.00,2017-02-24 08:25:00,
2017-02-24 01:26:00,34.4,10.8,29.55,WNW,300,3.0,5.0,37,0.00,,---,0.00,VWS V15.00,2017-02-24 08:26:00,
2017-02-24 01:27:00,34.4,10.8,29.55,WNW,300,2.0,3.0,37,0.00,,---,0.00,VWS V15.00,2017-02-24 08:27:00,
2017-02-24 01:28:00,34.1,10.6,29.55,WNW,300,1.0,1.0,37,0.00,,---,0.00,VWS V15.00,2017-02-24 08:28:00,
2017-02-24 01:29:00,34.2,10.7,29.55,WNW,300,3.0,4.0,37,0.00,,---,0.00,VWS V15.00,2017-02-24 08:29:00,
2017-02-24 01:30:00,34.2,10.7,29.55,WNW,300,4.0,4.0,37,0.00,,---,0.00,VWS V15.00,2017-02-24 08:30:00,
2017-02-24 01:31:00,34.1,10.6,29.55,WNW,300,0.0,4.0,37,0.00,,---,0.00,VWS V15.00,2017-02-24 08:31:00,
2017-02-24 01:32:00,34.1,10.6,29.55,WNW,300,1.0,4.0,37,0.00,,---,0.00,VWS V15.00,2017-02-24 08:32:00,
2017-02-24 01:33:00,33.9,10.4,29.55,WNW,300,2.0,2.0,37,0.00,,---,0.00,VWS V15.00,2017-02-24 08:33:00,
2017-02-24 01:34:00,34.0,10.5,29.55,WNW,300,2.0,4.0,37,0.00,,---,0.00,VWS V15.00,2017-02-24 08:34:00,
2017-02-24 01:35:00,34.0,10.5,29.55,WNW,300,4.0,5.0,37,0.00,,---,0.00,VWS V15.00,2017-02-24 08:35:00,
2017-02-24 01:36:00,33.9,10.4,29.55,WNW,300,1.0,5.0,37,0.00,,---,0.00,VWS V15.00,2017-02-24 08:36:00,
2017-02-24 01:37:00,33.9,10.4,29.55,WNW,300,2.0,3.0,37,0.00,,---,0.00,VWS V15.00,2017-02-24 08:37:00,
2017-02-24 01:38:00,33.7,10.8,29.55,WNW,300,2.0,2.0,38,0.00,,---,0.00,VWS V15.00,2017-02-24 08:38:00,
2017-02-24 01:39:00,33.8,10.9,29.55,WNW,300,2.0,2.0,38,0.00,,---,0.00,VWS V15.00,2017-02-24 08:39:00,
2017-02-24 01:40:00,33.7,10.8,29.55,WNW,300,2.0,2.0,38,0.00,,---,0.00,VWS V15.00,2017-02-24 08:40:00,
2017-02-24 01:41:00,33.7,10.8,29.55,WNW,300,2.0,2.0,38,0.00,,---,0.00,VWS V15.00,2017-02-24 08:41:00,
2017-02-24 01:42:00,33.7,10.8,29.55,WNW,300,3.0,3.0,38,0.00,,---,0.00,VWS V15.00,2017-02-24 08:42:00,
2017-02-24 01:43:00,33.4,10.5,29.55,WNW,300,0.0,0.0,38,0.00,,---,0.00,VWS V15.00,2017-02-24 08:43:00,
2017-02-24 01:44:00,33.5,10.6,29.55,WNW,300,1.0,2.0,38,0.00,,---,0.00,VWS V15.00,2017-02-24 08:44:00,
2017-02-24 01:45:00,33.5,10.6,29.55,WNW,300,0.0,1.0,38,0.00,,---,0.00,VWS V15.00,2017-02-24 08:45:00,
2017-02-24 01:46:00,33.5,10.6,29.55,WNW,300,0.0,2.0,38,0.00,,---,0.00,VWS V15.00,2017-02-24 08:46:00,
2017-02-24 01:47:00,33.2,10.9,29.56,WNW,300,1.0,2.0,39,0.00,,---,0.00,VWS V15.00,2017-02-24 08:47:00,
2017-02-24 01:48:00,33.4,10.5,29.55,WNW,300,0.0,1.0,38,0.00,,---,0.00,VWS V15.00,2017-02-24 08:48:00,
2017-02-24 01:49:00,33.3,11.0,29.55,WNW,300,2.0,2.0,39,0.00,,---,0.00,VWS V15.00,2017-02-24 08:49:00,
2017-02-24 01:50:00,33.2,10.9,29.56,WNW,300,1.0,2.0,39,0.00,,---,0.00,VWS V15.00,2017-02-24 08:50:00,
2017-02-24 01:51:00,33.2,10.9,29.55,WNW,300,0.0,2.0,39,0.00,,---,0.00,VWS V15.00,2017-02-24 08:51:00,
2017-02-24 01:52:00,33.0,10.8,29.55,WNW,300,0.0,0.0,39,0.00,,---,0.00,VWS V15.00,2017-02-24 08:52:00,
2017-02-24 01:53:00,33.1,10.9,29.55,WNW,300,0.0,1.0,39,0.00,,---,0.00,VWS V15.00,2017-02-24 08:53:00,
2017-02-24 01:54:00,33.0,10.8,29.55,WNW,300,0.0,0.0,39,0.00,,---,0.00,VWS V15.00,2017-02-24 08:54:00,
2017-02-24 01:55:00,33.0,10.8,29.55,WNW,300,0.0,0.0,39,0.00,,---,0.00,VWS V15.00,2017-02-24 08:55:00,
2017-02-24 01:56:00,33.0,10.8,29.55,WNW,300,0.0,0.0,39,0.00,,---,0.00,VWS V15.00,2017-02-24 08:56:00,
2017-02-24 01:57:00,32.7,10.5,29.55,WNW,300,0.0,0.0,39,0.00,,---,0.00,VWS V15.00,2017-02-24 08:57:00,
2017-02-24 01:58:00,32.8,10.6,29.55,WNW,300,0.0,0.0,39,0.00,,---,0.00,VWS V15.00,2017-02-24 08:58:00,
2017-02-24 01:59:00,32.8,10.6,29.55,WNW,300,0.0,0.0,39,0.00,,---,0.00,VWS V15.00,2017-02-24 08:59:00,
2017-02-24 02:00:00,32.7,10.5,29.55,WNW,300,0.0,0.0,39,0.00,,---,0.00,VWS V15.00,2017-02-24 09:00:00,
2017-02-24 02:01:00,32.6,11.0,29.55,WNW,300,0.0,0.0,40,0.00,,---,0.00,VWS V15.00,2017-02-24 09:01:00,
2017-02-24 02:02:00,32.2,11.2,29.56,WNW,300,0.0,0.0,41,0.00,,---,0.00,VWS V15.00,2017-02-24 09:02:00,
2017-02-24 02:03:00,32.5,10.9,29.56,WNW,300,0.0,0.0,40,0.00,,---,0.00,VWS V15.00,2017-02-24 09:03:00,
2017-02-24 02:04:00,32.4,11.3,29.55,WNW,300,0.0,0.0,41,0.00,,---,0.00,VWS V15.00,2017-02-24 09:04:00,
2017-02-24 02:05:00,32.3,11.2,29.56,WNW,300,0.0,0.0,41,0.00,,---,0.00,VWS V15.00,2017-02-24 09:05:00,
2017-02-24 02:06:00,32.1,11.1,29.56,WNW,300,0.0,0.0,41,0.00,,---,0.00,VWS V15.00,2017-02-24 09:06:00,
2017-02-24 02:07:00,31.8,10.8,29.56,WNW,300,0.0,0.0,41,0.00,,---,0.00,VWS V15.00,2017-02-24 09:07:00,
2017-02-24 02:08:00,32.0,11.0,29.56,WNW,300,0.0,0.0,41,0.00,,---,0.00,VWS V15.00,2017-02-24 09:08:00,
2017-02-24 02:09:00,31.9,10.9,29.56,WNW,300,0.0,0.0,41,0.00,,---,0.00,VWS V15.00,2017-02-24 09:09:00,
2017-02-24 02:10:00,31.8,10.8,29.56,WNW,300,0.0,0.0,41,0.00,,---,0.00,VWS V15.00,2017-02-24 09:10:00,
2017-02-24 02:11:00,31.7,10.7,29.56,WNW,300,0.0,0.0,41,0.00,,---,0.00,VWS V15.00,2017-02-24 09:11:00,
2017-02-24 02:12:00,31.5,11.1,29.56,WNW,300,0.0,0.0,42,0.00,,---,0.00,VWS V15.00,2017-02-24 09:12:00,
2017-02-24 02:13:00,31.6,11.2,29.56,WNW,300,0.0,0.0,42,0.00,,---,0.00,VWS V15.00,2017-02-24 09:13:00,
2017-02-24 02:14:00,31.5,11.1,29.56,WNW,300,0.0,0.0,42,0.00,,---,0.00,VWS V15.00,2017-02-24 09:14:00,
2017-02-24 02:15:00,31.5,11.1,29.56,WNW,300,0.0,0.0,42,0.00,,---,0.00,VWS V15.00,2017-02-24 09:15:00,
2017-02-24 02:16:00,31.4,11.0,29.56,WNW,300,0.0,0.0,42,0.00,,---,0.00,VWS V15.00,2017-02-24 09:16:00,
2017-02-24 02:17:00,31.4,11.0,29.57,WNW,300,0.0,0.0,42,0.00,,---,0.00,VWS V15.00,2017-02-24 09:17:00,
2017-02-24 02:18:00,31.4,11.0,29.57,WNW,300,0.0,0.0,42,0.00,,---,0.00,VWS V15.00,2017-02-24 09:18:00,
2017-02-24 02:19:00,31.4,11.0,29.57,WNW,300,0.0,0.0,42,0.00,,---,0.00,VWS V15.00,2017-02-24 09:19:00,
2017-02-24 02:20:00,31.4,11.0,29.57,WNW,300,0.0,0.0,42,0.00,,---,0.00,VWS V15.00,2017-02-24 09:20:00,
2017-02-24 02:21:00,31.4,11.5,29.57,WNW,300,0.0,0.0,43,0.00,,---,0.00,VWS V15.00,2017-02-24 09:21:00,
2017-02-24 02:22:00,31.4,11.5,29.57,WNW,300,0.0,0.0,43,0.00,,---,0.00,VWS V15.00,2017-02-24 09:22:00,
2017-02-24 02:23:00,31.4,11.5,29.57,WNW,300,0.0,0.0,43,0.00,,---,0.00,VWS V15.00,2017-02-24 09:23:00,
2017-02-24 02:24:00,31.4,11.5,29.57,WNW,300,0.0,0.0,43,0.00,,---,0.00,VWS V15.00,2017-02-24 09:24:00,
2017-02-24 02:25:00,31.4,11.5,29.56,WNW,300,0.0,0.0,43,0.00,,---,0.00,VWS V15.00,2017-02-24 09:25:00,
2017-02-24 02:26:00,31.4,11.5,29.57,WNW,300,0.0,0.0,43,0.00,,---,0.00,VWS V15.00,2017-02-24 09:26:00,
2017-02-24 02:27:00,31.3,11.9,29.56,WNW,300,0.0,0.0,44,0.00,,---,0.00,VWS V15.00,2017-02-24 09:27:00,
2017-02-24 02:28:00,31.4,12.0,29.57,WNW,300,1.0,3.0,44,0.00,,---,0.00,VWS V15.00,2017-02-24 09:28:00,
2017-02-24 02:29:00,31.3,11.9,29.56,WNW,300,1.0,2.0,44,0.00,,---,0.00,VWS V15.00,2017-02-24 09:29:00,
2017-02-24 02:30:00,31.3,11.9,29.56,WNW,300,0.0,1.0,44,0.00,,---,0.00,VWS V15.00,2017-02-24 09:30:00,
2017-02-24 02:31:00,31.3,11.9,29.56,WNW,300,0.0,0.0,44,0.00,,---,0.00,VWS V15.00,2017-02-24 09:31:00,
2017-02-24 02:32:00,31.0,12.2,29.57,WNW,300,2.0,3.0,45,0.00,,---,0.00,VWS V15.00,2017-02-24 09:32:00,
2017-02-24 02:33:00,31.2,11.8,29.57,WNW,300,1.0,1.0,44,0.00,,---,0.00,VWS V15.00,2017-02-24 09:33:00,
2017-02-24 02:34:00,31.1,11.8,29.57,WNW,300,2.0,4.0,44,0.00,,---,0.00,VWS V15.00,2017-02-24 09:34:00,
2017-02-24 02:35:00,31.0,12.2,29.57,WNW,300,2.0,3.0,45,0.00,,---,0.00,VWS V15.00,2017-02-24 09:35:00,
2017-02-24 02:36:00,30.9,12.1,29.57,WNW,300,0.0,3.0,45,0.00,,---,0.00,VWS V15.00,2017-02-24 09:36:00,
2017-02-24 02:37:00,30.5,12.2,29.57,WNW,300,0.0,0.0,46,0.00,,---,0.00,VWS V15.00,2017-02-24 09:37:00,
2017-02-24 02:38:00,30.7,12.4,29.57,WNW,300,0.0,3.0,46,0.00,,---,0.00,VWS V15.00,2017-02-24 09:38:00,
2017-02-24 02:39:00,30.6,12.3,29.57,WNW,300,0.0,0.0,46,0.00,,---,0.00,VWS V15.00,2017-02-24 09:39:00,
2017-02-24 02:40:00,30.5,12.2,29.57,WNW,300,0.0,0.0,46,0.00,,---,0.00,VWS V15.00,2017-02-24 09:40:00,
2017-02-24 02:41:00,30.4,12.1,29.57,WNW,300,1.0,1.0,46,0.00,,---,0.00,VWS V15.00,2017-02-24 09:41:00,
2017-02-24 02:42:00,30.3,12.5,29.57,WNW,300,2.0,3.0,47,0.00,,---,0.00,VWS V15.00,2017-02-24 09:42:00,
2017-02-24 02:43:00,30.3,12.5,29.57,WNW,300,3.0,3.0,47,0.00,,---,0.00,VWS V15.00,2017-02-24 09:43:00,
2017-02-24 02:44:00,30.3,12.5,29.57,WNW,300,2.0,4.0,47,0.00,,---,0.00,VWS V15.00,2017-02-24 09:44:00,
2017-02-24 02:45:00,30.3,12.5,29.57,WNW,300,2.0,4.0,47,0.00,,---,0.00,VWS V15.00,2017-02-24 09:45:00,
2017-02-24 02:46:00,30.3,12.5,29.57,WNW,300,2.0,3.0,47,0.00,,---,0.00,VWS V15.00,2017-02-24 09:46:00,
2017-02-24 02:47:00,30.3,12.5,29.57,WNW,300,3.0,4.0,47,0.00,,---,0.00,VWS V15.00,2017-02-24 09:47:00,
2017-02-24 02:48:00,30.3,12.5,29.57,WNW,300,2.0,2.0,47,0.00,,---,0.00,VWS V15.00,2017-02-24 09:48:00,
2017-02-24 02:49:00,30.3,12.5,29.57,WNW,300,3.0,3.0,47,0.00,,---,0.00,VWS V15.00,2017-02-24 09:49:00,
2017-02-24 02:50:00,30.3,12.5,29.57,WNW,300,0.0,3.0,47,0.00,,---,0.00,VWS V15.00,2017-02-24 09:50:00,
2017-02-24 02:51:00,30.3,12.5,29.57,WNW,300,2.0,2.0,47,0.00,,---,0.00,VWS V15.00,2017-02-24 09:51:00,
2017-02-24 02:52:00,30.3,12.5,29.57,WNW,300,3.0,3.0,47,0.00,,---,0.00,VWS V15.00,2017-02-24 09:52:00,
2017-02-24 02:53:00,30.3,13.0,29.57,WNW,300,2.0,4.0,48,0.00,,---,0.00,VWS V15.00,2017-02-24 09:53:00,
2017-02-24 02:54:00,30.3,13.0,29.57,WNW,300,3.0,4.0,48,0.00,,---,0.00,VWS V15.00,2017-02-24 09:54:00,
2017-02-24 02:55:00,30.3,13.0,29.57,WNW,300,3.0,3.0,48,0.00,,---,0.00,VWS V15.00,2017-02-24 09:55:00,
2017-02-24 02:56:00,30.3,13.0,29.57,WNW,300,4.0,4.0,48,0.00,,---,0.00,VWS V15.00,2017-02-24 09:56:00,
2017-02-24 02:57:00,30.3,13.0,29.56,WNW,300,2.0,4.0,48,0.00,,---,0.00,VWS V15.00,2017-02-24 09:57:00,
2017-02-24 02:58:00,30.3,13.0,29.58,WNW,300,2.0,3.0,48,0.00,,---,0.00,VWS V15.00,2017-02-24 09:58:00,
2017-02-24 02:59:00,30.3,13.0,29.57,WNW,300,3.0,4.0,48,0.00,,---,0.00,VWS V15.00,2017-02-24 09:59:00,
2017-02-24 03:00:00,30.3,13.0,29.57,WNW,300,3.0,4.0,48,0.00,,---,0.00,VWS V15.00,2017-02-24 10:00:00,
2017-02-24 03:01:00,30.3,13.4,29.58,WNW,300,1.0,3.0,49,0.00,,---,0.00,VWS V15.00,2017-02-24 10:01:00,
2017-02-24 03:02:00,30.3,13.4,29.58,WNW,300,3.0,3.0,49,0.00,,---,0.00,VWS V15.00,2017-02-24 10:02:00,
2017-02-24 03:03:00,30.3,13.9,29.58,WNW,300,2.0,4.0,50,0.00,,---,0.00,VWS V15.00,2017-02-24 10:03:00,
2017-02-24 03:04:00,30.3,13.4,29.58,WNW,300,3.0,4.0,49,0.00,,---,0.00,VWS V15.00,2017-02-24 10:04:00,
2017-02-24 03:05:00,30.3,13.4,29.58,WNW,300,4.0,4.0,49,0.00,,---,0.00,VWS V15.00,2017-02-24 10:05:00,
2017-02-24 03:06:00,30.4,14.0,29.58,WNW,300,3.0,4.0,50,0.00,,---,0.00,VWS V15.00,2017-02-24 10:06:00,
2017-02-24 03:07:00,30.4,14.0,29.58,WNW,300,5.0,5.0,50,0.00,,---,0.00,VWS V15.00,2017-02-24 10:07:00,
2017-02-24 03:08:00,30.8,15.3,29.57,WNW,300,4.0,4.0,52,0.00,,---,0.00,VWS V15.00,2017-02-24 10:08:00,
2017-02-24 03:09:00,30.6,14.6,29.57,WNW,300,4.0,6.0,51,0.00,,---,0.00,VWS V15.00,2017-02-24 10:09:00,
2017-02-24 03:10:00,30.7,15.2,29.57,WNW,300,2.0,4.0,52,0.00,,---,0.00,VWS V15.00,2017-02-24 10:10:00,
2017-02-24 03:11:00,30.8,15.3,29.57,WNW,300,6.0,7.0,52,0.00,,---,0.00,VWS V15.00,2017-02-24 10:11:00,
2017-02-24 03:12:00,31.0,15.4,29.57,WNW,300,3.0,6.0,52,0.00,,---,0.00,VWS V15.00,2017-02-24 10:12:00,
2017-02-24 03:13:00,31.6,16.5,29.57,WNW,300,3.0,4.0,53,0.00,,---,0.00,VWS V15.00,2017-02-24 10:13:00,
2017-02-24 03:14:00,31.3,16.2,29.57,WNW,300,5.0,9.0,53,0.00,,---,0.00,VWS V15.00,2017-02-24 10:14:00,
2017-02-24 03:15:00,31.5,16.4,29.57,WNW,300,4.0,6.0,53,0.00,,---,0.00,VWS V15.00,2017-02-24 10:15:00,
2017-02-24 03:16:00,31.7,16.5,29.57,WNW,300,7.0,8.0,53,0.00,,---,0.00,VWS V15.00,2017-02-24 10:16:00,
2017-02-24 03:17:00,31.8,16.6,29.57,WNW,300,5.0,7.0,53,0.00,,---,0.00,VWS V15.00,2017-02-24 10:17:00,
2017-02-24 03:18:00,32.2,16.6,29.57,WNW,300,3.0,5.0,52,0.00,,---,0.00,VWS V15.00,2017-02-24 10:18:00,
2017-02-24 03:19:00,32.1,16.5,29.57,WNW,300,4.0,6.0,52,0.00,,---,0.00,VWS V15.00,2017-02-24 10:19:00,
2017-02-24 03:20:00,32.2,16.6,29.57,WNW,300,2.0,5.0,52,0.00,,---,0.00,VWS V15.00,2017-02-24 10:20:00,
2017-02-24 03:21:00,32.2,16.6,29.57,WNW,300,5.0,9.0,52,0.00,,---,0.00,VWS V15.00,2017-02-24 10:21:00,
2017-02-24 03:22:00,32.3,16.7,29.57,WNW,300,6.0,9.0,52,0.00,,---,0.00,VWS V15.00,2017-02-24 10:22:00,
2017-02-24 03:23:00,32.5,16.9,29.56,WNW,300,4.0,7.0,52,0.00,,---,0.00,VWS V15.00,2017-02-24 10:23:00,
2017-02-24 03:24:00,32.4,16.8,29.57,WNW,300,6.0,10.0,52,0.00,,---,0.00,VWS V15.00,2017-02-24 10:24:00,
2017-02-24 03:25:00,32.5,16.8,29.57,WNW,300,7.0,10.0,52,0.00,,---,0.00,VWS V15.00,2017-02-24 10:25:00,
2017-02-24 03:26:00,32.5,16.8,29.56,WNW,301,6.0,7.0,52,0.00,,---,0.00,VWS V15.00,2017-02-24 10:26:00,
2017-02-24 03:27:00,32.5,16.8,29.56,WNW,301,4.0,9.0,52,0.00,,---,0.00,VWS V15.00,2017-02-24 10:27:00,
2017-02-24 03:28:00,32.7,17.0,29.56,WNW,302,6.0,8.0,52,0.00,,---,0.00,VWS V15.00,2017-02-24 10:28:00,
2017-02-24 03:29:00,32.6,16.9,29.56,WNW,301,5.0,8.0,52,0.00,,---,0.00,VWS V15.00,2017-02-24 10:29:00,
2017-02-24 03:30:00,32.6,16.9,29.56,WNW,302,5.0,9.0,52,0.00,,---,0.00,VWS V15.00,2017-02-24 10:30:00,
2017-02-24 03:31:00,32.7,16.6,29.56,WNW,302,7.0,8.0,51,0.00,,---,0.00,VWS V15.00,2017-02-24 10:31:00,
2017-02-24 03:32:00,32.7,16.6,29.56,WNW,296,5.0,11.0,51,0.00,,---,0.00,VWS V15.00,2017-02-24 10:32:00,
2017-02-24 03:33:00,32.7,16.6,29.56,WNW,301,4.0,8.0,51,0.00,,---,0.00,VWS V15.00,2017-02-24 10:33:00,
2017-02-24 03:34:00,32.7,16.6,29.56,NW,304,3.0,11.0,51,0.00,,---,0.00,VWS V15.00,2017-02-24 10:34:00,
2017-02-24 03:35:00,32.8,16.7,29.56,WNW,302,7.0,7.0,51,0.00,,---,0.00,VWS V15.00,2017-02-24 10:35:00,
2017-02-24 03:36:00,32.8,16.7,29.56,WNW,300,5.0,8.0,51,0.00,,---,0.00,VWS V15.00,2017-02-24 10:36:00,
2017-02-24 03:37:00,32.8,16.7,29.56,WNW,300,5.0,5.0,51,0.00,,---,0.00,VWS V15.00,2017-02-24 10:37:00,
2017-02-24 03:38:00,32.8,16.7,29.56,WNW,301,8.0,11.0,51,0.00,,---,0.00,VWS V15.00,2017-02-24 10:38:00,
2017-02-24 03:39:00,32.8,16.7,29.56,WNW,300,6.0,6.0,51,0.00,,---,0.00,VWS V15.00,2017-02-24 10:39:00,
2017-02-24 03:40:00,32.7,16.6,29.56,WNW,302,11.0,11.0,51,0.00,,---,0.00,VWS V15.00,2017-02-24 10:40:00,
2017-02-24 03:41:00,32.8,16.7,29.56,WNW,300,6.0,11.0,51,0.00,,---,0.00,VWS V15.00,2017-02-24 10:41:00,
2017-02-24 03:42:00,32.7,16.6,29.57,WNW,301,3.0,9.0,51,0.00,,---,0.00,VWS V15.00,2017-02-24 10:42:00,
2017-02-24 03:43:00,32.7,16.6,29.56,WNW,300,7.0,8.0,51,0.00,,---,0.00,VWS V15.00,2017-02-24 10:43:00,
2017-02-24 03:44:00,32.7,16.6,29.56,WNW,300,4.0,5.0,51,0.00,,---,0.00,VWS V15.00,2017-02-24 10:44:00,
2017-02-24 03:45:00,32.7,16.6,29.57,WNW,300,3.0,6.0,51,0.00,,---,0.00,VWS V15.00,2017-02-24 10:45:00,
2017-02-24 03:46:00,32.7,16.6,29.56,WNW,301,6.0,8.0,51,0.00,,---,0.00,VWS V15.00,2017-02-24 10:46:00,
2017-02-24 03:47:00,32.7,16.6,29.57,WNW,301,2.0,6.0,51,0.00,,---,0.00,VWS V15.00,2017-02-24 10:47:00,
2017-02-24 03:48:00,32.6,16.9,29.56,WNW,300,3.0,5.0,52,0.00,,---,0.00,VWS V15.00,2017-02-24 10:48:00,
2017-02-24 03:49:00,32.6,16.5,29.56,WNW,301,6.0,7.0,51,0.00,,---,0.00,VWS V15.00,2017-02-24 10:49:00,
2017-02-24 03:50:00,32.6,16.9,29.57,WNW,301,5.0,7.0,52,0.00,,---,0.00,VWS V15.00,2017-02-24 10:50:00,
2017-02-24 03:51:00,32.6,16.9,29.56,WNW,300,5.0,6.0,52,0.00,,---,0.00,VWS V15.00,2017-02-24 10:51:00,
2017-02-24 03:52:00,32.5,16.8,29.56,WNW,300,3.0,5.0,52,0.00,,---,0.00,VWS V15.00,2017-02-24 10:52:00,
2017-02-24 03:53:00,32.4,16.8,29.57,WNW,301,5.0,5.0,52,0.00,,---,0.00,VWS V15.00,2017-02-24 10:53:00,
2017-02-24 03:54:00,32.5,16.8,29.56,WNW,301,2.0,9.0,52,0.00,,---,0.00,VWS V15.00,2017-02-24 10:54:00,
2017-02-24 03:55:00,32.5,16.8,29.57,WNW,301,3.0,4.0,52,0.00,,---,0.00,VWS V15.00,2017-02-24 10:55:00,
2017-02-24 03:56:00,32.4,16.8,29.57,WNW,301,4.0,5.0,52,0.00,,---,0.00,VWS V15.00,2017-02-24 10:56:00,
2017-02-24 03:57:00,32.4,16.8,29.58,WNW,300,3.0,5.0,52,0.00,,---,0.00,VWS V15.00,2017-02-24 10:57:00,
2017-02-24 03:58:00,32.2,16.6,29.58,WNW,301,3.0,5.0,52,0.00,,---,0.00,VWS V15.00,2017-02-24 10:58:00,
2017-02-24 03:59:00,32.3,16.7,29.58,WNW,300,2.0,6.0,52,0.00,,---,0.00,VWS V15.00,2017-02-24 10:59:00,
2017-02-24 04:00:00,32.2,16.6,29.58,WNW,301,4.0,5.0,52,0.00,,---,0.00,VWS V15.00,2017-02-24 11:00:00,
2017-02-24 04:01:00,32.2,16.6,29.58,WNW,301,2.0,5.0,52,0.00,,---,0.00,VWS V15.00,2017-02-24 11:01:00,
2017-02-24 04:02:00,32.1,16.5,29.58,WNW,301,4.0,4.0,52,0.00,,---,0.00,VWS V15.00,2017-02-24 11:02:00,
2017-02-24 04:03:00,32.0,16.8,29.58,WNW,301,4.0,5.0,53,0.00,,---,0.00,VWS V15.00,2017-02-24 11:03:00,
2017-02-24 04:04:00,32.0,16.4,29.58,WNW,301,4.0,5.0,52,0.00,,---,0.00,VWS V15.00,2017-02-24 11:04:00,
2017-02-24 04:05:00,32.0,16.8,29.58,WNW,300,4.0,5.0,53,0.00,,---,0.00,VWS V15.00,2017-02-24 11:05:00,
2017-02-24 04:06:00,32.0,16.8,29.58,WNW,300,4.0,5.0,53,0.00,,---,0.00,VWS V15.00,2017-02-24 11:06:00,
2017-02-24 04:07:00,31.9,16.3,29.58,WNW,301,3.0,6.0,52,0.00,,---,0.00,VWS V15.00,2017-02-24 11:07:00,
2017-02-24 04:08:00,31.9,16.7,29.58,WNW,300,5.0,6.0,53,0.00,,---,0.00,VWS V15.00,2017-02-24 11:08:00,
2017-02-24 04:09:00,31.9,16.7,29.58,WNW,301,5.0,6.0,53,0.00,,---,0.00,VWS V15.00,2017-02-24 11:09:00,
2017-02-24 04:10:00,31.9,16.7,29.58,WNW,300,5.0,5.0,53,0.00,,---,0.00,VWS V15.00,2017-02-24 11:10:00,
2017-02-24 04:11:00,31.9,16.7,29.58,WNW,300,5.0,6.0,53,0.00,,---,0.00,VWS V15.00,2017-02-24 11:11:00,
2017-02-24 04:12:00,31.9,16.7,29.58,WNW,300,4.0,6.0,53,0.00,,---,0.00,VWS V15.00,2017-02-24 11:12:00,
2017-02-24 04:13:00,31.8,16.6,29.58,WNW,303,6.0,7.0,53,0.00,,---,0.00,VWS V15.00,2017-02-24 11:13:00,
2017-02-24 04:14:00,31.8,16.6,29.58,WNW,303,6.0,9.0,53,0.00,,---,0.00,VWS V15.00,2017-02-24 11:14:00,
2017-02-24 04:15:00,31.8,16.6,29.58,WNW,303,3.0,6.0,53,0.00,,---,0.00,VWS V15.00,2017-02-24 11:15:00,
2017-02-24 04:16:00,31.8,16.6,29.58,WNW,303,6.0,7.0,53,0.00,,---,0.00,VWS V15.00,2017-02-24 11:16:00,
2017-02-24 04:17:00,31.7,16.5,29.58,WNW,303,6.0,7.0,53,0.00,,---,0.00,VWS V15.00,2017-02-24 11:17:00,
2017-02-24 04:18:00,31.6,16.5,29.59,WNW,303,4.0,6.0,53,0.00,,---,0.00,VWS V15.00,2017-02-24 11:18:00,
2017-02-24 04:19:00,31.7,16.5,29.58,WNW,303,4.0,6.0,53,0.00,,---,0.00,VWS V15.00,2017-02-24 11:19:00,
2017-02-24 04:20:00,31.7,16.5,29.59,WNW,303,6.0,9.0,53,0.00,,---,0.00,VWS V15.00,2017-02-24 11:20:00,
2017-02-24 04:21:00,31.6,16.5,29.59,WNW,303,2.0,6.0,53,0.00,,---,0.00,VWS V15.00,2017-02-24 11:21:00,
2017-02-24 04:22:00,31.6,16.5,29.59,NW,304,4.0,9.0,53,0.00,,---,0.00,VWS V15.00,2017-02-24 11:22:00,
2017-02-24 04:23:00,31.5,16.4,29.59,WNW,303,4.0,5.0,53,0.00,,---,0.00,VWS V15.00,2017-02-24 11:23:00,
2017-02-24 04:24:00,31.5,16.4,29.59,NW,304,2.0,7.0,53,0.00,,---,0.00,VWS V15.00,2017-02-24 11:24:00,
2017-02-24 04:25:00,31.5,16.4,29.59,WNW,303,4.0,5.0,53,0.00,,---,0.00,VWS V15.00,2017-02-24 11:25:00,
2017-02-24 04:26:00,31.5,16.4,29.59,WNW,303,4.0,5.0,53,0.00,,---,0.00,VWS V15.00,2017-02-24 11:26:00,
2017-02-24 04:27:00,31.5,16.4,29.59,WNW,303,3.0,5.0,53,0.00,,---,0.00,VWS V15.00,2017-02-24 11:27:00,
2017-02-24 04:28:00,31.4,16.7,29.60,WNW,303,2.0,4.0,54,0.00,,---,0.00,VWS V15.00,2017-02-24 11:28:00,
2017-02-24 04:29:00,31.5,16.4,29.59,NW,304,4.0,7.0,53,0.00,,---,0.00,VWS V15.00,2017-02-24 11:29:00,
2017-02-24 04:30:00,31.4,16.7,29.59,NW,304,4.0,4.0,54,0.00,,---,0.00,VWS V15.00,2017-02-24 11:30:00,
2017-02-24 04:31:00,31.4,16.7,29.60,NW,304,2.0,4.0,54,0.00,,---,0.00,VWS V15.00,2017-02-24 11:31:00,
2017-02-24 04:32:00,31.4,16.7,29.60,NW,304,5.0,5.0,54,0.00,,---,0.00,VWS V15.00,2017-02-24 11:32:00,
2017-02-24 04:33:00,31.3,16.6,29.61,NW,316,7.0,7.0,54,0.00,,---,0.00,VWS V15.00,2017-02-24 11:33:00,
2017-02-24 04:34:00,31.3,16.6,29.61,WNW,303,7.0,7.0,54,0.00,,---,0.00,VWS V15.00,2017-02-24 11:34:00,
2017-02-24 04:35:00,31.3,16.6,29.61,NW,316,6.0,10.0,54,0.00,,---,0.00,VWS V15.00,2017-02-24 11:35:00,
2017-02-24 04:36:00,31.3,16.6,29.61,NW,316,6.0,7.0,54,0.00,,---,0.00,VWS V15.00,2017-02-24 11:36:00,
2017-02-24 04:37:00,31.2,16.5,29.61,NW,316,5.0,6.0,54,0.00,,---,0.00,VWS V15.00,2017-02-24 11:37:00,
2017-02-24 04:38:00,31.0,16.7,29.61,NW,315,4.0,4.0,55,0.00,,---,0.00,VWS V15.00,2017-02-24 11:38:00,
2017-02-24 04:39:00,31.1,16.4,29.61,NW,315,5.0,6.0,54,0.00,,---,0.00,VWS V15.00,2017-02-24 11:39:00,
2017-02-24 04:40:00,31.1,16.8,29.61,NW,315,4.0,5.0,55,0.00,,---,0.00,VWS V15.00,2017-02-24 11:40:00,
2017-02-24 04:41:00,31.0,16.7,29.61,NW,316,4.0,4.0,55,0.00,,---,0.00,VWS V15.00,2017-02-24 11:41:00,
2017-02-24 04:42:00,30.9,16.6,29.61,NW,316,5.0,6.0,55,0.00,,---,0.00,VWS V15.00,2017-02-24 11:42:00,
2017-02-24 04:43:00,30.7,16.5,29.61,NW,316,3.0,5.0,55,0.00,,---,0.00,VWS V15.00,2017-02-24 11:43:00,
2017-02-24 04:44:00,30.8,16.5,29.61,NW,316,5.0,6.0,55,0.00,,---,0.00,VWS V15.00,2017-02-24 11:44:00,
2017-02-24 04:45:00,30.7,16.5,29.61,NW,316,4.0,6.0,55,0.00,,---,0.00,VWS V15.00,2017-02-24 11:45:00,
2017-02-24 04:46:00,30.7,16.5,29.61,NW,315,3.0,5.0,55,0.00,,---,0.00,VWS V15.00,2017-02-24 11:46:00,
2017-02-24 04:47:00,30.6,16.4,29.61,NW,315,2.0,5.0,55,0.00,,---,0.00,VWS V15.00,2017-02-24 11:47:00,
2017-02-24 04:48:00,30.4,16.6,29.61,NW,315,3.0,7.0,56,0.00,,---,0.00,VWS V15.00,2017-02-24 11:48:00,
2017-02-24 04:49:00,30.5,16.7,29.61,NW,316,5.0,5.0,56,0.00,,---,0.00,VWS V15.00,2017-02-24 11:49:00,
2017-02-24 04:50:00,30.5,16.7,29.61,NW,316,5.0,5.0,56,0.00,,---,0.00,VWS V15.00,2017-02-24 11:50:00,
2017-02-24 04:51:00,30.4,16.6,29.61,NW,316,3.0,7.0,56,0.00,,---,0.00,VWS V15.00,2017-02-24 11:51:00,
2017-02-24 04:52:00,30.3,16.5,29.61,NW,316,4.0,5.0,56,0.00,,---,0.00,VWS V15.00,2017-02-24 11:52:00,
2017-02-24 04:53:00,30.2,16.4,29.62,NW,315,3.0,5.0,56,0.00,,---,0.00,VWS V15.00,2017-02-24 11:53:00,
2017-02-24 04:54:00,30.2,16.4,29.61,NW,315,3.0,5.0,56,0.00,,---,0.00,VWS V15.00,2017-02-24 11:54:00,
2017-02-24 04:55:00,30.2,16.4,29.61,NW,316,2.0,4.0,56,0.00,,---,0.00,VWS V15.00,2017-02-24 11:55:00,
2017-02-24 04:56:00,30.2,16.4,29.62,NW,316,3.0,5.0,56,0.00,,---,0.00,VWS V15.00,2017-02-24 11:56:00,
2017-02-24 04:57:00,30.1,16.3,29.62,NW,316,4.0,4.0,56,0.00,,---,0.00,VWS V15.00,2017-02-24 11:57:00,
2017-02-24 04:58:00,30.0,16.2,29.62,NW,316,3.0,4.0,56,0.00,,---,0.00,VWS V15.00,2017-02-24 11:58:00,
2017-02-24 04:59:00,30.1,16.3,29.62,NW,316,4.0,7.0,56,0.00,,---,0.00,VWS V15.00,2017-02-24 11:59:00,
2017-02-24 05:00:00,30.0,16.2,29.62,NW,316,3.0,5.0,56,0.00,,---,0.00,VWS V15.00,2017-02-24 12:00:00,
2017-02-24 05:01:00,30.0,16.2,29.62,NW,316,3.0,4.0,56,0.00,,---,0.00,VWS V15.00,2017-02-24 12:01:00,
2017-02-24 05:02:00,29.9,16.5,29.64,NW,315,3.0,5.0,57,0.00,,---,0.00,VWS V15.00,2017-02-24 12:02:00,
2017-02-24 05:03:00,29.8,16.4,29.64,NW,315,1.0,3.0,57,0.00,,---,0.00,VWS V15.00,2017-02-24 12:03:00,
2017-02-24 05:04:00,29.9,16.5,29.64,NW,316,3.0,3.0,57,0.00,,---,0.00,VWS V15.00,2017-02-24 12:04:00,
2017-02-24 05:05:00,29.9,16.5,29.64,NW,316,2.0,4.0,57,0.00,,---,0.00,VWS V15.00,2017-02-24 12:05:00,
2017-02-24 05:06:00,29.8,16.4,29.64,NW,315,1.0,3.0,57,0.00,,---,0.00,VWS V15.00,2017-02-24 12:06:00,
2017-02-24 05:07:00,29.8,16.4,29.64,NW,316,1.0,2.0,57,0.00,,---,0.00,VWS V15.00,2017-02-24 12:07:00,
2017-02-24 05:08:00,29.7,16.4,29.64,NW,316,0.0,0.0,57,0.00,,---,0.00,VWS V15.00,2017-02-24 12:08:00,
2017-02-24 05:09:00,29.7,17.9,29.64,NW,316,0.0,0.0,61,0.00,,---,0.00,VWS V15.00,2017-02-24 12:09:00,
2017-02-24 05:10:00,29.7,16.3,29.64,NW,316,0.0,0.0,57,0.00,,---,0.00,VWS V15.00,2017-02-24 12:10:00,
2017-02-24 05:11:00,29.7,16.3,29.64,NW,316,0.0,0.0,57,0.00,,---,0.00,VWS V15.00,2017-02-24 12:11:00,
2017-02-24 05:12:00,29.7,16.3,29.64,NW,315,0.0,0.0,57,0.00,,---,0.00,VWS V15.00,2017-02-24 12:12:00,
2017-02-24 05:13:00,29.5,16.2,29.65,NW,316,0.0,0.0,57,0.00,,---,0.00,VWS V15.00,2017-02-24 12:13:00,
2017-02-24 05:14:00,29.6,16.2,29.64,NW,315,0.0,0.0,57,0.00,,---,0.00,VWS V15.00,2017-02-24 12:14:00,
2017-02-24 05:15:00,29.6,16.2,29.65,NW,315,0.0,0.0,57,0.00,,---,0.00,VWS V15.00,2017-02-24 12:15:00,
2017-02-24 05:16:00,29.5,16.2,29.65,NW,316,0.0,0.0,57,0.00,,---,0.00,VWS V15.00,2017-02-24 12:16:00,
2017-02-24 05:17:00,29.5,16.2,29.65,NW,316,0.0,0.0,57,0.00,,---,0.00,VWS V15.00,2017-02-24 12:17:00,
2017-02-24 05:18:00,29.2,15.9,29.66,NW,315,0.0,0.0,57,0.00,,---,0.00,VWS V15.00,2017-02-24 12:18:00,
2017-02-24 05:19:00,29.3,16.0,29.66,NW,315,0.0,0.0,57,0.00,,---,0.00,VWS V15.00,2017-02-24 12:19:00,
2017-02-24 05:20:00,29.3,16.0,29.66,NW,315,0.0,0.0,57,0.00,,---,0.00,VWS V15.00,2017-02-24 12:20:00,
2017-02-24 05:21:00,29.2,15.9,29.66,NW,315,0.0,0.0,57,0.00,,---,0.00,VWS V15.00,2017-02-24 12:21:00,
2017-02-24 05:22:00,29.2,15.9,29.66,NW,316,0.0,0.0,57,0.00,,---,0.00,VWS V15.00,2017-02-24 12:22:00,
2017-02-24 05:23:00,29.0,16.1,29.66,NW,316,0.0,0.0,58,0.00,,---,0.00,VWS V15.00,2017-02-24 12:23:00,
2017-02-24 05:24:00,29.1,16.2,29.66,NW,316,0.0,0.0,58,0.00,,---,0.00,VWS V15.00,2017-02-24 12:24:00,
2017-02-24 05:25:00,29.0,16.1,29.66,NW,316,0.0,0.0,58,0.00,,---,0.00,VWS V15.00,2017-02-24 12:25:00,
2017-02-24 05:26:00,29.0,16.1,29.66,NW,315,0.0,0.0,58,0.00,,---,0.00,VWS V15.00,2017-02-24 12:26:00,
2017-02-24 05:27:00,28.9,16.0,29.66,NW,315,0.0,0.0,58,0.00,,---,0.00,VWS V15.00,2017-02-24 12:27:00,
2017-02-24 05:28:00,28.7,16.2,29.67,NW,315,0.0,0.0,59,0.00,,---,0.00,VWS V15.00,2017-02-24 12:28:00,
2017-02-24 05:29:00,28.8,15.9,29.66,NW,315,0.0,0.0,58,0.00,,---,0.00,VWS V15.00,2017-02-24 12:29:00,
2017-02-24 05:30:00,28.8,15.9,29.67,NW,316,0.0,0.0,58,0.00,,---,0.00,VWS V15.00,2017-02-24 12:30:00,
2017-02-24 05:31:00,28.7,15.8,29.67,NW,316,0.0,0.0,58,0.00,,---,0.00,VWS V15.00,2017-02-24 12:31:00,
2017-02-24 05:32:00,28.7,16.2,29.67,NW,316,0.0,0.0,59,0.00,,---,0.00,VWS V15.00,2017-02-24 12:32:00,
2017-02-24 05:33:00,28.5,16.0,29.67,NW,316,0.0,0.0,59,0.00,,---,0.00,VWS V15.00,2017-02-24 12:33:00,
2017-02-24 05:34:00,28.6,16.1,29.67,NW,316,0.0,0.0,59,0.00,,---,0.00,VWS V15.00,2017-02-24 12:34:00,
2017-02-24 05:35:00,28.6,16.1,29.67,NW,316,0.0,0.0,59,0.00,,---,0.00,VWS V15.00,2017-02-24 12:35:00,
2017-02-24 05:36:00,28.5,16.0,29.67,NW,316,0.0,0.0,59,0.00,,---,0.00,VWS V15.00,2017-02-24 12:36:00,
2017-02-24 05:37:00,28.5,16.0,29.67,NW,315,0.0,0.0,59,0.00,,---,0.00,VWS V15.00,2017-02-24 12:37:00,
2017-02-24 05:38:00,28.6,16.1,29.67,NW,316,0.0,0.0,59,0.00,,---,0.00,VWS V15.00,2017-02-24 12:38:00,
2017-02-24 05:39:00,28.5,16.0,29.67,NW,315,0.0,0.0,59,0.00,,---,0.00,VWS V15.00,2017-02-24 12:39:00,
2017-02-24 05:40:00,28.5,16.0,29.67,NW,316,0.0,0.0,59,0.00,,---,0.00,VWS V15.00,2017-02-24 12:40:00,
2017-02-24 05:41:00,28.6,16.1,29.67,NW,315,0.0,0.0,59,0.00,,---,0.00,VWS V15.00,2017-02-24 12:41:00,
2017-02-24 05:42:00,28.5,16.0,29.67,NW,316,0.0,0.0,59,0.00,,---,0.00,VWS V15.00,2017-02-24 12:42:00,
2017-02-24 05:43:00,28.5,16.0,29.67,NW,316,0.0,0.0,59,0.00,,---,0.00,VWS V15.00,2017-02-24 12:43:00,
2017-02-24 05:44:00,28.5,16.0,29.67,NW,316,0.0,0.0,59,0.00,,---,0.00,VWS V15.00,2017-02-24 12:44:00,
2017-02-24 05:45:00,28.5,16.0,29.67,NW,316,0.0,0.0,59,0.00,,---,0.00,VWS V15.00,2017-02-24 12:45:00,
2017-02-24 05:46:00,28.5,16.0,29.67,NW,315,0.0,0.0,59,0.00,,---,0.00,VWS V15.00,2017-02-24 12:46:00,
2017-02-24 05:47:00,28.5,16.4,29.67,NW,316,0.0,0.0,60,0.00,,---,0.00,VWS V15.00,2017-02-24 12:47:00,
2017-02-24 05:48:00,28.5,16.4,29.67,NW,316,0.0,0.0,60,0.00,,---,0.00,VWS V15.00,2017-02-24 12:48:00,
2017-02-24 05:49:00,28.5,16.4,29.67,NW,315,0.0,0.0,60,0.00,,---,0.00,VWS V15.00,2017-02-24 12:49:00,
2017-02-24 05:50:00,28.5,16.4,29.67,NW,316,0.0,0.0,60,0.00,,---,0.00,VWS V15.00,2017-02-24 12:50:00,
2017-02-24 05:51:00,28.5,16.4,29.67,NW,316,0.0,0.0,60,0.00,,---,0.00,VWS V15.00,2017-02-24 12:51:00,
2017-02-24 05:52:00,28.5,16.4,29.67,NW,316,0.0,0.0,60,0.00,,---,0.00,VWS V15.00,2017-02-24 12:52:00,
2017-02-24 05:53:00,28.4,16.3,29.68,NW,316,0.0,0.0,60,0.00,,---,0.00,VWS V15.00,2017-02-24 12:53:00,
2017-02-24 05:54:00,28.4,16.3,29.67,NW,316,0.0,0.0,60,0.00,,---,0.00,VWS V15.00,2017-02-24 12:54:00,
2017-02-24 05:55:00,28.4,16.3,29.67,NW,315,0.0,0.0,60,0.00,,---,0.00,VWS V15.00,2017-02-24 12:55:00,
2017-02-24 05:56:00,28.4,16.3,29.68,NW,315,0.0,0.0,60,0.00,,---,0.00,VWS V15.00,2017-02-24 12:56:00,
2017-02-24 05:57:00,28.3,16.2,29.68,NW,316,0.0,0.0,60,0.00,,---,0.00,VWS V15.00,2017-02-24 12:57:00,
2017-02-24 05:58:00,28.2,16.1,29.70,NW,316,0.0,0.0,60,0.00,,---,0.00,VWS V15.00,2017-02-24 12:58:00,
2017-02-24 05:59:00,28.3,16.2,29.68,NW,316,0.0,0.0,60,0.00,,---,0.00,VWS V15.00,2017-02-24 12:59:00,
2017-02-24 06:00:00,28.2,16.1,29.68,NW,316,0.0,0.0,60,0.00,,---,0.00,VWS V15.00,2017-02-24 13:00:00,
2017-02-24 06:01:00,28.2,16.1,29.68,NW,316,0.0,0.0,60,0.00,,---,0.00,VWS V15.00,2017-02-24 13:01:00,
2017-02-24 06:02:00,28.2,16.5,29.70,NW,315,0.0,0.0,61,0.00,,---,0.00,VWS V15.00,2017-02-24 13:02:00,
2017-02-24 06:03:00,28.0,16.3,29.70,NW,316,0.0,0.0,61,0.00,,---,0.00,VWS V15.00,2017-02-24 13:03:00,
2017-02-24 06:04:00,28.0,16.3,29.70,NW,316,0.0,0.0,61,0.00,,---,0.00,VWS V15.00,2017-02-24 13:04:00,
2017-02-24 06:05:00,28.0,16.3,29.70,NW,316,0.0,0.0,61,0.00,,---,0.00,VWS V15.00,2017-02-24 13:05:00,
2017-02-24 06:06:00,28.0,16.3,29.70,NW,316,0.0,0.0,61,0.00,,---,0.00,VWS V15.00,2017-02-24 13:06:00,
2017-02-24 06:07:00,27.9,16.2,29.70,NW,315,0.0,0.0,61,0.00,,---,0.00,VWS V15.00,2017-02-24 13:07:00,
2017-02-24 06:08:00,27.8,16.1,29.70,NW,315,0.0,0.0,61,0.00,,---,0.00,VWS V15.00,2017-02-24 13:08:00,
2017-02-24 06:09:00,27.8,16.1,29.70,NW,315,0.0,0.0,61,0.00,,---,0.00,VWS V15.00,2017-02-24 13:09:00,
2017-02-24 06:10:00,27.8,16.1,29.70,NW,316,0.0,0.0,61,0.00,,---,0.00,VWS V15.00,2017-02-24 13:10:00,
2017-02-24 06:11:00,27.8,16.1,29.70,NW,316,0.0,0.0,61,0.00,,---,0.00,VWS V15.00,2017-02-24 13:11:00,
2017-02-24 06:12:00,27.8,16.1,29.70,NW,316,0.0,0.0,61,0.00,,---,0.00,VWS V15.00,2017-02-24 13:12:00,
2017-02-24 06:13:00,27.6,16.3,29.70,NW,316,0.0,0.0,62,0.00,,---,0.00,VWS V15.00,2017-02-24 13:13:00,
2017-02-24 06:14:00,27.7,16.4,29.70,NW,316,0.0,0.0,62,0.00,,---,0.00,VWS V15.00,2017-02-24 13:14:00,
2017-02-24 06:15:00,27.7,16.4,29.70,NW,316,0.0,0.0,62,0.00,,---,0.00,VWS V15.00,2017-02-24 13:15:00,
2017-02-24 06:16:00,27.6,16.3,29.70,NW,316,0.0,0.0,62,0.00,,---,0.00,VWS V15.00,2017-02-24 13:16:00,
2017-02-24 06:17:00,27.6,16.3,29.70,NW,315,0.0,0.0,62,0.00,,---,0.00,VWS V15.00,2017-02-24 13:17:00,
2017-02-24 06:18:00,27.5,16.2,29.70,NW,316,0.0,0.0,62,0.00,,---,0.00,VWS V15.00,2017-02-24 13:18:00,
2017-02-24 06:19:00,27.6,16.3,29.70,NW,316,0.0,0.0,62,0.00,,---,0.00,VWS V15.00,2017-02-24 13:19:00,
2017-02-24 06:20:00,27.5,16.2,29.70,NW,316,0.0,0.0,62,0.00,,---,0.00,VWS V15.00,2017-02-24 13:20:00,
2017-02-24 06:21:00,27.5,16.2,29.70,NW,315,0.0,0.0,62,0.00,,---,0.00,VWS V15.00,2017-02-24 13:21:00,
2017-02-24 06:22:00,27.4,16.1,29.70,NW,316,0.0,0.0,62,0.00,,---,0.00,VWS V15.00,2017-02-24 13:22:00,
2017-02-24 06:23:00,27.4,16.5,29.72,NW,316,0.0,0.0,63,0.00,,---,0.00,VWS V15.00,2017-02-24 13:23:00,
2017-02-24 06:24:00,27.4,16.1,29.72,NW,315,0.0,0.0,62,0.00,,---,0.00,VWS V15.00,2017-02-24 13:24:00,
2017-02-24 06:25:00,27.4,16.5,29.71,NW,316,0.0,0.0,63,0.00,,---,0.00,VWS V15.00,2017-02-24 13:25:00,
2017-02-24 06:26:00,27.3,16.4,29.72,NW,316,0.0,0.0,63,0.00,,---,0.00,VWS V15.00,2017-02-24 13:26:00,
2017-02-24 06:27:00,27.3,16.4,29.72,NW,315,0.0,0.0,63,0.00,,---,0.00,VWS V15.00,2017-02-24 13:27:00,
2017-02-24 06:28:00,27.2,15.9,29.72,NW,316,0.0,0.0,62,0.00,,---,0.00,VWS V15.00,2017-02-24 13:28:00,
2017-02-24 06:29:00,27.3,16.4,29.72,NW,316,0.0,0.0,63,0.00,,---,0.00,VWS V15.00,2017-02-24 13:29:00,
2017-02-24 06:30:00,27.3,16.4,29.72,NW,316,0.0,0.0,63,0.00,,---,0.00,VWS V15.00,2017-02-24 13:30:00,
2017-02-24 06:31:00,27.2,15.9,29.72,NW,316,0.0,0.0,62,0.00,,---,0.00,VWS V15.00,2017-02-24 13:31:00,
2017-02-24 06:32:00,27.2,16.3,29.72,NW,316,0.0,0.0,63,0.00,,---,0.00,VWS V15.00,2017-02-24 13:32:00,
2017-02-24 06:33:00,27.0,16.1,29.72,NW,316,0.0,0.0,63,0.00,,---,0.00,VWS V15.00,2017-02-24 13:33:00,
2017-02-24 06:34:00,27.0,16.1,29.72,NW,316,0.0,0.0,63,0.00,,---,0.00,VWS V15.00,2017-02-24 13:34:00,
2017-02-24 06:35:00,27.1,16.2,29.72,NW,316,0.0,0.0,63,0.00,,---,0.00,VWS V15.00,2017-02-24 13:35:00,
2017-02-24 06:36:00,27.0,16.1,29.72,NW,315,0.0,0.0,63,0.00,,---,0.00,VWS V15.00,2017-02-24 13:36:00,
2017-02-24 06:37:00,27.0,16.1,29.72,NW,315,0.0,0.0,63,0.00,,---,0.00,VWS V15.00,2017-02-24 13:37:00,
2017-02-24 06:38:00,27.0,16.1,29.72,NW,316,0.0,0.0,63,0.00,,---,0.00,VWS V15.00,2017-02-24 13:38:00,
2017-02-24 06:39:00,26.9,16.0,29.72,NW,316,0.0,0.0,63,0.00,,---,0.00,VWS V15.00,2017-02-24 13:39:00,
2017-02-24 06:40:00,26.9,16.0,29.72,NW,315,0.0,0.0,63,0.00,,---,0.00,VWS V15.00,2017-02-24 13:40:00,
2017-02-24 06:41:00,26.9,16.0,29.72,NW,316,0.0,0.0,63,0.00,,---,0.00,VWS V15.00,2017-02-24 13:41:00,
2017-02-24 06:42:00,26.8,15.9,29.72,NW,316,0.0,0.0,63,0.00,,---,0.00,VWS V15.00,2017-02-24 13:42:00,
2017-02-24 06:43:00,26.8,15.9,29.72,NW,315,0.0,0.0,63,0.00,,---,0.00,VWS V15.00,2017-02-24 13:43:00,
2017-02-24 06:44:00,26.8,16.3,29.73,NW,315,0.0,0.0,64,0.00,,---,0.00,VWS V15.00,2017-02-24 13:44:00,
2017-02-24 06:45:00,26.7,16.2,29.72,NW,316,0.0,0.0,64,0.00,,---,0.00,VWS V15.00,2017-02-24 13:45:00,
2017-02-24 06:46:00,26.7,16.2,29.72,NW,316,0.0,0.0,64,0.00,,---,0.00,VWS V15.00,2017-02-24 13:46:00,
2017-02-24 06:47:00,26.8,16.3,29.73,NW,316,0.0,0.0,64,0.00,,---,0.00,VWS V15.00,2017-02-24 13:47:00,
2017-02-24 06:48:00,26.8,16.3,29.73,NW,315,2.0,2.0,64,0.00,,---,0.00,VWS V15.00,2017-02-24 13:48:00,
2017-02-24 06:49:00,27.1,16.2,29.73,NW,316,3.0,3.0,63,0.00,,---,0.00,VWS V15.00,2017-02-24 13:49:00,
2017-02-24 06:50:00,26.9,16.0,29.73,NW,316,2.0,3.0,63,0.00,,---,0.00,VWS V15.00,2017-02-24 13:50:00,
2017-02-24 06:51:00,27.0,16.1,29.73,NW,316,4.0,4.0,63,0.00,,---,0.00,VWS V15.00,2017-02-24 13:51:00,
2017-02-24 06:52:00,27.1,16.2,29.73,NW,316,2.0,4.0,63,0.00,,---,0.00,VWS V15.00,2017-02-24 13:52:00,
2017-02-24 06:53:00,27.2,16.3,29.73,NW,315,2.0,3.0,63,0.00,,---,0.00,VWS V15.00,2017-02-24 13:53:00,
2017-02-24 06:54:00,27.5,16.2,29.72,NW,315,4.0,4.0,62,0.00,,---,0.00,VWS V15.00,2017-02-24 13:54:00,
2017-02-24 06:55:00,27.3,16.0,29.73,NW,316,0.0,3.0,62,0.00,,---,0.00,VWS V15.00,2017-02-24 13:55:00,
2017-02-24 06:56:00,27.4,16.1,29.73,NW,316,4.0,4.0,62,0.00,,---,0.00,VWS V15.00,2017-02-24 13:56:00,
2017-02-24 06:57:00,27.5,16.2,29.73,NW,315,1.0,4.0,62,0.00,,---,0.00,VWS V15.00,2017-02-24 13:57:00,
2017-02-24 06:58:00,27.6,16.3,29.72,NW,315,1.0,4.0,62,0.00,,---,0.00,VWS V15.00,2017-02-24 13:58:00,
2017-02-24 06:59:00,27.8,15.7,29.74,NW,316,1.0,1.0,60,0.00,,---,0.00,VWS V15.00,2017-02-24 13:59:00,
2017-02-24 07:00:00,27.7,16.0,29.72,NW,316,2.0,2.0,61,0.00,,---,0.00,VWS V15.00,2017-02-24 14:00:00,
2017-02-24 07:01:00,27.8,16.1,29.73,NW,315,1.0,4.0,61,0.00,,---,0.00,VWS V15.00,2017-02-24 14:01:00,
2017-02-24 07:02:00,27.8,15.7,29.74,NW,315,1.0,3.0,60,0.00,,---,0.00,VWS V15.00,2017-02-24 14:02:00,
2017-02-24 07:03:00,27.8,15.7,29.74,NW,316,2.0,2.0,60,0.00,,---,0.00,VWS V15.00,2017-02-24 14:03:00,
2017-02-24 07:04:00,27.9,15.8,29.74,NW,316,1.0,2.0,60,0.00,,---,0.00,VWS V15.00,2017-02-24 14:04:00,
2017-02-24 07:05:00,27.9,15.8,29.74,NW,316,0.0,3.0,60,0.00,,---,0.00,VWS V15.00,2017-02-24 14:05:00,
2017-02-24 07:06:00,27.9,15.8,29.74,NW,316,1.0,1.0,60,0.00,,---,0.00,VWS V15.00,2017-02-24 14:06:00,
2017-02-24 07:07:00,27.9,15.8,29.74,NW,316,2.0,2.0,60,0.00,,---,0.00,VWS V15.00,2017-02-24 14:07:00,
2017-02-24 07:08:00,27.9,15.8,29.74,NW,315,1.0,2.0,60,0.00,,---,0.00,VWS V15.00,2017-02-24 14:08:00,
2017-02-24 07:09:00,27.9,15.8,29.74,NW,315,2.0,3.0,60,0.00,,---,0.00,VWS V15.00,2017-02-24 14:09:00,
2017-02-24 07:10:00,27.9,15.8,29.74,NW,315,2.0,4.0,60,0.00,,---,0.00,VWS V15.00,2017-02-24 14:10:00,
2017-02-24 07:11:00,28.0,15.9,29.74,NW,315,1.0,3.0,60,0.00,,---,0.00,VWS V15.00,2017-02-24 14:11:00,
2017-02-24 07:12:00,28.0,15.9,29.74,NW,315,1.0,3.0,60,0.00,,---,0.00,VWS V15.00,2017-02-24 14:12:00,
2017-02-24 07:13:00,28.0,15.9,29.74,NW,315,1.0,2.0,60,0.00,,---,0.00,VWS V15.00,2017-02-24 14:13:00,
2017-02-24 07:14:00,28.0,15.9,29.75,NW,315,2.0,3.0,60,0.00,,---,0.00,VWS V15.00,2017-02-24 14:14:00,
2017-02-24 07:15:00,28.0,15.9,29.75,NW,315,2.0,4.0,60,0.00,,---,0.00,VWS V15.00,2017-02-24 14:15:00,
2017-02-24 07:16:00,28.0,15.9,29.75,NW,315,2.0,5.0,60,0.00,,---,0.00,VWS V15.00,2017-02-24 14:16:00,
2017-02-24 07:17:00,28.0,15.9,29.75,NW,315,1.0,3.0,60,0.00,,---,0.00,VWS V15.00,2017-02-24 14:17:00,
2017-02-24 07:18:00,27.9,15.8,29.75,NW,315,2.0,4.0,60,0.00,,---,0.00,VWS V15.00,2017-02-24 14:18:00,
2017-02-24 07:19:00,28.0,15.9,29.75,NW,315,3.0,5.0,60,0.00,,---,0.00,VWS V15.00,2017-02-24 14:19:00,
2017-02-24 07:20:00,28.0,15.9,29.75,NW,315,3.0,4.0,60,0.00,,---,0.00,VWS V15.00,2017-02-24 14:20:00,
2017-02-24 07:21:00,28.0,15.9,29.75,NW,315,4.0,5.0,60,0.00,,---,0.00,VWS V15.00,2017-02-24 14:21:00,
2017-02-24 07:22:00,28.1,16.0,29.75,NW,315,2.0,4.0,60,0.00,,---,0.00,VWS V15.00,2017-02-24 14:22:00,
2017-02-24 07:23:00,28.1,15.6,29.75,NW,315,3.0,5.0,59,0.00,,---,0.00,VWS V15.00,2017-02-24 14:23:00,
2017-02-24 07:24:00,28.2,15.7,29.75,NW,315,3.0,5.0,59,0.00,,---,0.00,VWS V15.00,2017-02-24 14:24:00,
2017-02-24 07:25:00,28.2,15.7,29.75,NW,315,4.0,5.0,59,0.00,,---,0.00,VWS V15.00,2017-02-24 14:25:00,
2017-02-24 07:26:00,28.3,15.8,29.75,NW,315,3.0,5.0,59,0.00,,---,0.00,VWS V15.00,2017-02-24 14:26:00,
2017-02-24 07:27:00,28.4,15.9,29.75,NW,315,2.0,4.0,59,0.00,,---,0.00,VWS V15.00,2017-02-24 14:27:00,
2017-02-24 07:28:00,28.5,16.0,29.75,NW,315,2.0,4.0,59,0.00,,---,0.00,VWS V15.00,2017-02-24 14:28:00,
2017-02-24 07:29:00,28.6,15.7,29.75,NW,315,3.0,5.0,58,0.00,,---,0.00,VWS V15.00,2017-02-24 14:29:00,
2017-02-24 07:30:00,28.7,15.8,29.75,NW,315,2.0,6.0,58,0.00,,---,0.00,VWS V15.00,2017-02-24 14:30:00,
2017-02-24 07:31:00,28.8,15.9,29.75,NW,315,2.0,6.0,58,0.00,,---,0.00,VWS V15.00,2017-02-24 14:31:00,
2017-02-24 07:32:00,28.9,15.6,29.75,NW,315,3.0,4.0,57,0.00,,---,0.00,VWS V15.00,2017-02-24 14:32:00,
2017-02-24 07:33:00,29.0,15.7,29.75,NW,315,4.0,6.0,57,0.00,,---,0.00,VWS V15.00,2017-02-24 14:33:00,
2017-02-24 07:34:00,29.2,15.9,29.75,NW,315,3.0,5.0,57,0.00,,---,0.00,VWS V15.00,2017-02-24 14:34:00,
2017-02-24 07:35:00,29.4,15.7,29.75,NW,315,3.0,4.0,56,0.00,,---,0.00,VWS V15.00,2017-02-24 14:35:00,
2017-02-24 07:36:00,29.5,15.3,29.76,NW,315,3.0,6.0,55,0.00,,---,0.00,VWS V15.00,2017-02-24 14:36:00,
2017-02-24 07:37:00,29.6,15.4,29.75,NW,315,2.0,5.0,55,0.00,,---,0.00,VWS V15.00,2017-02-24 14:37:00,
2017-02-24 07:38:00,29.8,15.6,29.75,NW,315,2.0,5.0,55,0.00,,---,0.00,VWS V15.00,2017-02-24 14:38:00,
2017-02-24 07:39:00,29.9,15.3,29.75,NW,315,0.0,2.0,54,0.00,,---,0.00,VWS V15.00,2017-02-24 14:39:00,
2017-02-24 07:40:00,30.0,15.4,29.75,NW,315,2.0,4.0,54,0.00,,---,0.00,VWS V15.00,2017-02-24 14:40:00,
2017-02-24 07:41:00,30.1,15.1,29.75,NW,315,2.0,4.0,53,0.00,,---,0.00,VWS V15.00,2017-02-24 14:41:00,
2017-02-24 07:42:00,30.2,15.1,29.75,NW,315,4.0,7.0,53,0.00,,---,0.00,VWS V15.00,2017-02-24 14:42:00,
2017-02-24 07:43:00,30.3,15.2,29.75,NW,315,4.0,6.0,53,0.00,,---,0.00,VWS V15.00,2017-02-24 14:43:00,
2017-02-24 07:44:00,30.4,14.9,29.75,WNW,292,5.0,8.0,52,0.00,,---,0.00,VWS V15.00,2017-02-24 14:44:00,
2017-02-24 07:45:00,30.5,15.0,29.75,WNW,292,2.0,6.0,52,0.00,,---,0.00,VWS V15.00,2017-02-24 14:45:00,
2017-02-24 07:46:00,30.5,15.0,29.75,WNW,292,0.0,2.0,52,0.00,,---,0.00,VWS V15.00,2017-02-24 14:46:00,
2017-02-24 07:47:00,30.6,15.1,29.75,WNW,292,2.0,7.0,52,0.00,,---,0.00,VWS V15.00,2017-02-24 14:47:00,
2017-02-24 07:48:00,30.7,14.7,29.75,WNW,292,2.0,10.0,51,0.00,,---,0.00,VWS V15.00,2017-02-24 14:48:00,
2017-02-24 07:49:00,30.8,14.8,29.75,West,270,5.0,7.0,51,0.00,,---,0.00,VWS V15.00,2017-02-24 14:49:00,
2017-02-24 07:50:00,30.8,14.8,29.75,West,270,2.0,5.0,51,0.00,,---,0.00,VWS V15.00,2017-02-24 14:50:00,
2017-02-24 07:51:00,31.0,15.0,29.75,West,270,2.0,3.0,51,0.00,,---,0.00,VWS V15.00,2017-02-24 14:51:00,
2017-02-24 07:52:00,31.1,14.6,29.75,West,270,3.0,6.0,50,0.00,,---,0.00,VWS V15.00,2017-02-24 14:52:00,
2017-02-24 08:02:00,32.2,13.3,29.75,WSW,248,1.0,3.0,45,0.00,,---,0.00,VWS V15.00,2017-02-24 15:02:00,
2017-02-24 08:07:00,32.9,12.3,29.75,WSW,240,8.0,10.0,42,0.00,,---,0.00,VWS V15.00,2017-02-24 15:07:00,
2017-02-24 08:12:00,33.4,11.1,29.75,WSW,249,7.0,10.0,39,0.00,,---,0.00,VWS V15.00,2017-02-24 15:12:00,
2017-02-24 08:17:00,33.9,10.4,29.73,SW,221,9.0,9.0,37,0.00,,---,0.00,VWS V15.00,2017-02-24 15:17:00,
2017-02-24 08:22:00,34.2,8.8,29.74,West,270,10.0,10.0,34,0.00,,---,0.00,VWS V15.00,2017-02-24 15:22:00,
2017-02-24 08:27:00,34.3,8.9,29.74,WSW,245,10.0,15.0,34,0.00,,---,0.00,VWS V15.00,2017-02-24 15:27:00,
2017-02-24 08:32:00,34.1,8.0,29.74,West,277,13.0,15.0,33,0.00,,---,0.00,VWS V15.00,2017-02-24 15:32:00,
2017-02-24 08:37:00,34.3,8.2,29.74,WNW,286,8.0,11.0,33,0.00,,---,0.00,VWS V15.00,2017-02-24 15:37:00,
2017-02-24 08:42:00,34.4,8.3,29.74,West,264,12.0,15.0,33,0.00,,---,0.00,VWS V15.00,2017-02-24 15:42:00,
2017-02-24 08:47:00,34.4,6.9,29.75,WNW,283,6.0,13.0,31,0.00,,---,0.00,VWS V15.00,2017-02-24 15:47:00,
2017-02-24 08:52:00,34.6,7.8,29.75,NW,306,7.0,13.0,32,0.00,,---,0.00,VWS V15.00,2017-02-24 15:52:00,
2017-02-24 08:57:00,35.0,8.1,29.75,West,260,6.0,12.0,32,0.00,,---,0.00,VWS V15.00,2017-02-24 15:57:00,
2017-02-24 09:02:00,35.4,7.8,29.75,WNW,288,9.0,18.0,31,0.00,,---,0.00,VWS V15.00,2017-02-24 16:02:00,
2017-02-24 09:07:00,35.3,7.0,29.75,WSW,257,15.0,22.0,30,0.00,,---,0.00,VWS V15.00,2017-02-24 16:07:00,
2017-02-24 09:12:00,35.2,6.9,29.75,West,273,7.0,15.0,30,0.00,,---,0.00,VWS V15.00,2017-02-24 16:12:00,
2017-02-24 09:17:00,35.4,7.1,29.75,NW,309,9.0,12.0,30,0.00,,---,0.00,VWS V15.00,2017-02-24 16:17:00,
2017-02-24 09:22:00,35.8,6.7,29.75,WSW,248,10.0,13.0,29,0.00,,---,0.00,VWS V15.00,2017-02-24 16:22:00,
2017-02-24 09:27:00,36.0,6.8,29.75,SW,236,9.0,9.0,29,0.00,,---,0.00,VWS V15.00,2017-02-24 16:27:00,
2017-02-24 09:32:00,36.1,6.9,29.75,West,267,14.0,20.0,29,0.00,,---,0.00,VWS V15.00,2017-02-24 16:32:00,
2017-02-24 09:37:00,36.0,6.8,29.75,West,259,12.0,16.0,29,0.00,,---,0.00,VWS V15.00,2017-02-24 16:37:00,
2017-02-24 09:42:00,36.5,7.3,29.74,NW,315,13.0,17.0,29,0.00,,---,0.00,VWS V15.00,2017-02-24 16:42:00,
2017-02-24 09:47:00,36.1,6.9,29.75,NW,321,9.0,10.0,29,0.00,,---,0.00,VWS V15.00,2017-02-24 16:47:00,
2017-02-24 09:52:00,36.2,7.0,29.75,WNW,291,7.0,9.0,29,0.00,,---,0.00,VWS V15.00,2017-02-24 16:52:00,
2017-02-24 09:57:00,36.3,7.1,29.75,NW,311,11.0,11.0,29,0.00,,---,0.00,VWS V15.00,2017-02-24 16:57:00,
2017-02-24 10:02:00,36.4,7.2,29.76,West,272,5.0,10.0,29,0.00,,---,0.00,VWS V15.00,2017-02-24 17:02:00,
2017-02-24 10:07:00,36.9,6.8,29.75,West,275,14.0,18.0,28,0.00,,---,0.00,VWS V15.00,2017-02-24 17:07:00,
2017-02-24 10:12:00,37.1,7.0,29.75,NW,306,12.0,15.0,28,0.00,,---,0.00,VWS V15.00,2017-02-24 17:12:00,
2017-02-24 10:17:00,36.7,6.7,29.75,West,279,9.0,11.0,28,0.00,,---,0.00,VWS V15.00,2017-02-24 17:17:00,
2017-02-24 10:22:00,36.9,6.8,29.75,NW,315,11.0,19.0,28,0.00,,---,0.00,VWS V15.00,2017-02-24 17:22:00,
2017-02-24 10:27:00,37.5,7.4,29.75,WNW,288,4.0,11.0,28,0.00,,---,0.00,VWS V15.00,2017-02-24 17:27:00,
2017-02-24 10:32:00,37.4,6.5,29.75,NW,311,15.0,15.0,27,0.00,,---,0.00,VWS V15.00,2017-02-24 17:32:00,
2017-02-24 10:37:00,37.7,6.8,29.76,WNW,284,4.0,10.0,27,0.00,,---,0.00,VWS V15.00,2017-02-24 17:37:00,
2017-02-24 10:42:00,37.5,6.6,29.76,WSW,250,9.0,10.0,27,0.00,,---,0.00,VWS V15.00,2017-02-24 17:42:00,
2017-02-24 10:47:00,37.8,7.6,29.76,West,273,15.0,17.0,28,0.00,,---,0.00,VWS V15.00,2017-02-24 17:47:00,
2017-02-24 10:53:00,37.9,6.9,29.76,WNW,291,9.0,18.0,27,0.00,,---,0.00,VWS V15.00,2017-02-24 17:53:00,
2017-02-24 10:58:00,38.1,7.1,29.76,West,266,10.0,11.0,27,0.00,,---,0.00,VWS V15.00,2017-02-24 17:58:00,
2017-02-24 11:03:00,38.4,7.3,29.76,West,261,13.0,13.0,27,0.00,,---,0.00,VWS V15.00,2017-02-24 18:03:00,
2017-02-24 11:08:00,38.3,7.3,29.76,WSW,255,9.0,12.0,27,0.00,,---,0.00,VWS V15.00,2017-02-24 18:08:00,
2017-02-24 11:13:00,38.7,6.8,29.76,WSW,252,9.0,18.0,26,0.00,,---,0.00,VWS V15.00,2017-02-24 18:13:00,
2017-02-24 11:18:00,38.6,7.5,29.76,SW,232,6.0,6.0,27,0.00,,---,0.00,VWS V15.00,2017-02-24 18:18:00,
2017-02-24 11:23:00,38.8,7.7,29.75,West,278,6.0,9.0,27,0.00,,---,0.00,VWS V15.00,2017-02-24 18:23:00,
2017-02-24 11:28:00,38.8,6.9,29.75,WNW,300,7.0,16.0,26,0.00,,---,0.00,VWS V15.00,2017-02-24 18:28:00,
2017-02-24 11:33:00,38.5,6.6,29.75,NW,310,7.0,11.0,26,0.00,,---,0.00,VWS V15.00,2017-02-24 18:33:00,
2017-02-24 11:38:00,38.8,6.9,29.75,WNW,292,8.0,12.0,26,0.00,,---,0.00,VWS V15.00,2017-02-24 18:38:00,
2017-02-24 11:40:00,38.9,6.9,29.75,West,271,13.0,14.0,26,0.00,,---,0.00,VWS V15.00,2017-02-24 18:40:00,
2017-02-24 11:45:00,38.9,6.1,29.74,WNW,293,17.0,20.0,25,0.00,,---,0.00,VWS V15.00,2017-02-24 18:45:00,
2017-02-24 11:50:00,38.8,6.0,29.74,WSW,238,9.0,12.0,25,0.00,,---,0.00,VWS V15.00,2017-02-24 18:50:00,
2017-02-24 11:55:00,38.8,6.0,29.74,West,277,3.0,10.0,25,0.00,,---,0.00,VWS V15.00,2017-02-24 18:55:00,
2017-02-24 12:00:00,38.9,6.1,29.74,WSW,241,6.0,11.0,25,0.00,,---,0.00,VWS V15.00,2017-02-24 19:00:00,